When you browse on this site, cookies collect data to enhance your experience and personalize the content and advertising you see.
Visit our Privacy Policy to learn more. By continuing to use the site, you agree to this use of cookies and data.
  • In Romania
  • List of Countries
  • For 7 days
  • Water Temperature
  • Satellite Maps
  • Weather Map
  • Weather Widgets
  • user-avatar
    Login

    Hourly Weather Dubovyy Umet

    Today, 19 May, Sunday

    Time Temperature Precipitation Wind Pressure Humidity
    00:00 +9°C° 0 mm 1 mps 746 mmHg 70%
    01:00 +8°C° 0 mm 1 mps 746 mmHg 70%
    02:00 +7°C° 0 mm 1 mps 746 mmHg 70%
    03:00 +6°C° 0 mm 0 mps 746 mmHg 73%
    04:00 +8°C° 0 mm 1 mps 746 mmHg 71%
    05:00 +8°C° 0 mm 2 mps 746 mmHg 69%
    06:00 +9°C° 0 mm 2 mps 746 mmHg 67%
    07:00 +10°C° 0 mm 3 mps 746 mmHg 63%
    08:00 +11°C° 0 mm 4 mps 746 mmHg 59%
    09:00 +12°C° 0 mm 5 mps 745 mmHg 55%
    10:00 +13°C° 0.1 mm 5 mps 745 mmHg 53%
    11:00 +13°C° 0.1 mm 6 mps 745 mmHg 50%
    12:00 +13°C° 0.1 mm 6 mps 745 mmHg 47%
    13:00 +13°C° 0 mm 6 mps 745 mmHg 46%
    14:00 +13°C° 0 mm 6 mps 746 mmHg 45%
    15:00 +13°C° 0 mm 6 mps 746 mmHg 45%
    16:00 +11°C° 0 mm 6 mps 746 mmHg 47%
    17:00 +12°C° 0 mm 5 mps 746 mmHg 50%
    18:00 +10°C° 0 mm 5 mps 746 mmHg 53%
    19:00 +8°C° 0 mm 4 mps 747 mmHg 56%
    20:00 +7°C° 0 mm 4 mps 747 mmHg 59%
    21:00 +7°C° 0 mm 3 mps 748 mmHg 62%
    22:00 +5°C° 0 mm 3 mps 748 mmHg 64%
    23:00 +5°C° 0 mm 3 mps 748 mmHg 65%

    Tomorrow, 20 May, Monday

    Time Temperature Precipitation Wind Pressure Humidity
    00:00 +5°C° 0 mm 2 mps 748 mmHg 67%
    01:00 +5°C° 0 mm 2 mps 748 mmHg 68%
    02:00 +3°C° 0 mm 3 mps 749 mmHg 69%
    03:00 +3°C° 0 mm 3 mps 749 mmHg 70%
    04:00 +4°C° 0 mm 3 mps 749 mmHg 68%
    05:00 +4°C° 0 mm 3 mps 749 mmHg 66%
    06:00 +5°C° 0 mm 4 mps 750 mmHg 65%
    07:00 +6°C° 0 mm 4 mps 750 mmHg 61%
    08:00 +8°C° 0 mm 4 mps 750 mmHg 56%
    09:00 +9°C° 0 mm 5 mps 750 mmHg 52%
    10:00 +9°C° 0 mm 5 mps 750 mmHg 52%
    11:00 +10°C° 0 mm 5 mps 750 mmHg 52%
    12:00 +10°C° 0 mm 5 mps 750 mmHg 52%
    13:00 +10°C° 0.1 mm 5 mps 750 mmHg 52%
    14:00 +12°C° 0.1 mm 5 mps 750 mmHg 51%
    15:00 +11°C° 0.1 mm 6 mps 750 mmHg 51%
    16:00 +12°C° 0.1 mm 5 mps 750 mmHg 55%
    17:00 +10°C° 0.1 mm 5 mps 750 mmHg 58%
    18:00 +11°C° 0.1 mm 4 mps 750 mmHg 62%
    19:00 +10°C° 0 mm 4 mps 750 mmHg 66%
    20:00 +7°C° 0 mm 4 mps 750 mmHg 71%
    21:00 +7°C° 0 mm 3 mps 750 mmHg 75%
    22:00 +7°C° 0 mm 3 mps 750 mmHg 76%
    23:00 +5°C° 0 mm 3 mps 750 mmHg 78%

    Day after tomorrow, 21 May, Tuesday

    Time Temperature Precipitation Wind Pressure Humidity
    00:00 +5°C° 0 mm 3 mps 751 mmHg 79%
    01:00 +5°C° 0 mm 3 mps 751 mmHg 80%
    02:00 +4°C° 0 mm 3 mps 751 mmHg 80%
    03:00 +4°C° 0 mm 3 mps 751 mmHg 80%
    04:00 +5°C° 0 mm 3 mps 752 mmHg 77%
    05:00 +6°C° 0 mm 4 mps 752 mmHg 73%
    06:00 +7°C° 0 mm 4 mps 752 mmHg 69%
    07:00 +8°C° 0 mm 4 mps 752 mmHg 61%
    08:00 +10°C° 0 mm 5 mps 753 mmHg 52%
    09:00 +12°C° 0 mm 5 mps 753 mmHg 44%
    10:00 +13°C° 0 mm 5 mps 753 mmHg 43%
    11:00 +14°C° 0 mm 5 mps 753 mmHg 41%
    12:00 +15°C° 0 mm 5 mps 753 mmHg 40%
    13:00 +15°C° 0 mm 5 mps 753 mmHg 40%
    14:00 +15°C° 0 mm 5 mps 753 mmHg 40%
    15:00 +16°C° 0 mm 5 mps 753 mmHg 40%
    16:00 +15°C° 0 mm 4 mps 752 mmHg 43%
    17:00 +14°C° 0 mm 4 mps 752 mmHg 47%
    18:00 +14°C° 0 mm 3 mps 752 mmHg 50%
    19:00 +14°C° 0 mm 2 mps 752 mmHg 51%
    20:00 +12°C° 0 mm 2 mps 752 mmHg 52%
    21:00 +11°C° 0 mm 1 mps 752 mmHg 52%
    22:00 +11°C° 0 mm 1 mps 752 mmHg 52%
    23:00 +11°C° 0 mm 1 mps 752 mmHg 53%

    22 May, Wednesday

    Time Temperature Precipitation Wind Pressure Humidity
    00:00 +12°C° 0 mm 1 mps 752 mmHg 53%
    01:00 +11°C° 0.1 mm 1 mps 752 mmHg 55%
    02:00 +11°C° 0.1 mm 1 mps 752 mmHg 57%
    03:00 +11°C° 0.1 mm 1 mps 752 mmHg 60%
    04:00 +10°C° 1.2 mm 2 mps 751 mmHg 68%
    05:00 +9°C° 1.2 mm 2 mps 751 mmHg 77%
    06:00 +9°C° 1.2 mm 3 mps 751 mmHg 85%
    07:00 +10°C° 0.1 mm 3 mps 751 mmHg 82%
    08:00 +11°C° 0.1 mm 3 mps 750 mmHg 79%
    09:00 +11°C° 0.1 mm 3 mps 750 mmHg 76%
    10:00 +13°C° 0.1 mm 3 mps 750 mmHg 73%
    11:00 +14°C° 0.1 mm 3 mps 750 mmHg 70%
    12:00 +16°C° 0.1 mm 2 mps 750 mmHg 68%
    13:00 +18°C° 0.2 mm 3 mps 749 mmHg 64%
    14:00 +20°C° 0.2 mm 3 mps 749 mmHg 60%
    15:00 +22°C° 0.2 mm 4 mps 749 mmHg 56%
    16:00 +21°C° 0.5 mm 3 mps 749 mmHg 60%
    17:00 +20°C° 0.5 mm 2 mps 748 mmHg 65%
    18:00 +20°C° 0.5 mm 2 mps 748 mmHg 69%
    19:00 +18°C° 0 mm 2 mps 748 mmHg 73%
    20:00 +17°C° 0 mm 3 mps 748 mmHg 77%
    21:00 +16°C° 0 mm 3 mps 748 mmHg 80%
    22:00 +14°C° 0 mm 3 mps 748 mmHg 81%
    23:00 +14°C° 0 mm 3 mps 747 mmHg 83%

    23 May, Thursday

    Time Temperature Precipitation Wind Pressure Humidity
    00:00 +14°C° 0 mm 4 mps 747 mmHg 84%
    01:00 +13°C° 0 mm 4 mps 747 mmHg 83%
    02:00 +13°C° 0 mm 4 mps 747 mmHg 83%
    03:00 +12°C° 0 mm 4 mps 746 mmHg 83%
    04:00 +13°C° 0 mm 4 mps 746 mmHg 79%
    05:00 +14°C° 0 mm 5 mps 746 mmHg 76%
    06:00 +15°C° 0 mm 5 mps 746 mmHg 73%
    07:00 +16°C° 0 mm 6 mps 746 mmHg 66%
    08:00 +19°C° 0 mm 6 mps 746 mmHg 60%
    09:00 +21°C° 0 mm 7 mps 746 mmHg 53%
    10:00 +22°C° 0 mm 7 mps 745 mmHg 50%
    11:00 +23°C° 0 mm 8 mps 745 mmHg 46%
    12:00 +23°C° 0 mm 8 mps 745 mmHg 42%
    13:00 +23°C° 0 mm 8 mps 745 mmHg 42%
    14:00 +24°C° 0 mm 8 mps 744 mmHg 42%
    15:00 +24°C° 0 mm 7 mps 744 mmHg 42%
    16:00 +23°C° 0 mm 6 mps 744 mmHg 46%
    17:00 +22°C° 0 mm 5 mps 743 mmHg 50%
    18:00 +21°C° 0 mm 4 mps 743 mmHg 54%
    19:00 +20°C° 0 mm 4 mps 743 mmHg 55%
    20:00 +18°C° 0 mm 4 mps 743 mmHg 57%
    21:00 +15°C° 0 mm 5 mps 743 mmHg 59%
    22:00 +15°C° 0 mm 4 mps 743 mmHg 63%
    23:00 +14°C° 0 mm 4 mps 742 mmHg 68%

    24 May, Friday

    Time Temperature Precipitation Wind Pressure Humidity
    00:00 +14°C° 0 mm 4 mps 742 mmHg 72%
    01:00 +14°C° 0 mm 4 mps 742 mmHg 73%
    02:00 +14°C° 0 mm 4 mps 741 mmHg 74%
    03:00 +13°C° 0 mm 4 mps 741 mmHg 75%
    04:00 +14°C° 0 mm 4 mps 741 mmHg 75%
    05:00 +14°C° 0 mm 4 mps 741 mmHg 75%
    06:00 +14°C° 0 mm 4 mps 740 mmHg 75%
    07:00 +17°C° 0 mm 4 mps 740 mmHg 72%
    08:00 +18°C° 0 mm 4 mps 740 mmHg 70%
    09:00 +20°C° 0 mm 4 mps 740 mmHg 67%
    10:00 +21°C° 0.5 mm 4 mps 740 mmHg 62%
    11:00 +23°C° 0.5 mm 4 mps 740 mmHg 58%
    12:00 +25°C° 0.5 mm 5 mps 740 mmHg 53%
    13:00 +25°C° 1.4 mm 4 mps 740 mmHg 53%
    14:00 +25°C° 1.4 mm 4 mps 739 mmHg 53%
    15:00 +25°C° 1.4 mm 4 mps 739 mmHg 53%
    16:00 +22°C° 1.5 mm 4 mps 739 mmHg 61%
    17:00 +21°C° 1.5 mm 4 mps 739 mmHg 68%
    18:00 +20°C° 1.5 mm 3 mps 740 mmHg 76%
    19:00 +18°C° 0.5 mm 4 mps 740 mmHg 81%
    20:00 +15°C° 0.5 mm 4 mps 740 mmHg 87%
    21:00 +13°C° 0.5 mm 5 mps 740 mmHg 92%
    22:00 +12°C° 0 mm 5 mps 741 mmHg 92%
    23:00 +9°C° 0 mm 5 mps 741 mmHg 91%
    Show more